CW5539 Weather Reports


time (UTC)temp
C
wind
direction
speed
KPH
gust
KPH
rain 1hr
cm
rain 24hr
cm
rain mn
cm
humidity
%
barometer
mb
20260504214718 19 237 1.6 9.7 0.00 0.00 0.00 55 1013.4
20260504214215 19 232 3.2 4.8 0.00 0.00 0.00 56 1013.5
20260504213712 19 37 6.4 6.4 0.00 0.00 0.00 55 1013.4
20260504213208 19 232 3.2 9.7 0.00 0.00 0.00 54 1013.6
20260504212705 19 241 1.6 6.4 0.00 0.00 0.00 55 1013.4
20260504212202 19 341 0.0 3.2 0.00 0.00 0.00 57 1013.4
20260504211659 20 216 3.2 6.4 0.00 0.00 0.00 54 1013.6
20260504211155 20 35 1.6 4.8 0.00 0.00 0.00 54 1013.4
20260504210653 20 85 4.8 6.4 0.00 0.00 0.00 53 1013.4
20260504210149 20 238 0.0 4.8 0.00 0.00 0.00 54 1013.6
20260504205647 20 156 3.2 17.7 0.00 0.00 0.00 53 1013.4
20260504205144 19 223 1.6 3.2 0.00 0.00 0.00 58 1013.3
20260504204643 18 238 3.2 6.4 0.00 0.00 0.00 57 1013.4
20260504204141 18 192 3.2 6.4 0.00 0.00 0.00 59 1013.4
20260504203639 18 235 3.2 9.7 0.00 0.00 0.00 58 1013.4
20260504203137 19 243 1.6 11.3 0.00 0.00 0.00 55 1013.3
20260504202637 19 184 3.2 14.5 0.00 0.00 0.00 55 1013.2
20260504202134 19 188 6.4 9.7 0.00 0.00 0.00 55 1013.2
20260504201631 19 210 6.4 6.4 0.00 0.00 0.00 55 1013.4
20260504201129 18 223 1.6 9.7 0.00 0.00 0.00 55 1013.4
20260504200626 19 329 4.8 9.7 0.00 0.00 0.00 54 1013.4
20260504200122 20 184 6.4 17.7 0.00 0.00 0.00 52 1013.5
20260504195618 20 243 4.8 6.4 0.00 0.00 0.00 52 1013.4
20260504195114 20 181 9.7 14.5 0.00 0.00 0.00 52 1013.6
20260504194611 20 197 3.2 6.4 0.00 0.00 0.00 53 1013.5
20260504194107 20 208 6.4 16.1 0.00 0.00 0.00 52 1013.8
20260504193603 20 296 4.8 6.4 0.00 0.00 0.00 52 1013.8
20260504193102 20 188 0.0 14.5 0.00 0.00 0.00 53 1013.6
20260504192600 20 208 3.2 6.4 0.00 0.00 0.00 53 1013.9
20260504192058 20 205 1.6 14.5 0.00 0.00 0.00 53 1013.8
20260504191556 21 232 9.7 17.7 0.00 0.00 0.00 49 1014.2
20260504191051 22 196 11.3 16.1 0.00 0.00 0.00 45 1014.0
20260504190548 23 244 3.2 14.5 0.00 0.00 0.00 30 1014.2
20260504190044 23 300 4.8 11.3 0.00 0.00 0.00 31 1014.3
20260504185541 23 278 1.6 9.7 0.00 0.00 0.00 31 1014.1
20260504185038 23 207 3.2 12.9 0.00 0.00 0.00 29 1014.4
20260504184533 23 202 3.2 6.4 0.00 0.00 0.00 30 1014.0
20260504184029 23 246 1.6 6.4 0.00 0.00 0.00 35 1013.9
20260504183526 22 244 3.2 14.5 0.00 0.00 0.00 32 1014.4
20260504183024 22 216 12.9 14.5 0.00 0.00 0.00 32 1014.5
20260504182520 22 294 4.8 12.9 0.00 0.00 0.00 32 1014.6
20260504182018 22 246 3.2 11.3 0.00 0.00 0.00 31 1014.4
20260504181515 22 204 3.2 14.5 0.00 0.00 0.00 31 1014.6
20260504181014 22 227 9.7 16.1 0.00 0.00 0.00 31 1014.9
20260504180512 22 249 3.2 17.7 0.00 0.00 0.00 36 1014.8
20260504180010 22 182 9.7 16.1 0.00 0.00 0.00 32 1014.9
20260504175507 22 200 11.3 14.5 0.00 0.00 0.00 29 1014.9
20260504175004 22 217 9.7 12.9 0.00 0.00 0.00 33 1015.1
20260504174502 22 301 3.2 17.7 0.00 0.00 0.00 32 1015.2
20260504173959 22 279 3.2 12.9 0.00 0.00 0.00 34 1015.0
20260504173455 22 191 4.8 9.7 0.00 0.00 0.00 33 1015.1
20260504172953 21 167 6.4 14.5 0.00 0.00 0.00 32 1015.0
20260504172448 21 228 9.7 20.9 0.00 0.00 0.00 34 1015.3
20260504171945 21 179 4.8 12.9 0.00 0.00 0.00 34 1015.5
20260504171443 21 248 12.9 16.1 0.00 0.00 0.00 31 1015.6
20260504170939 21 164 14.5 17.7 0.00 0.00 0.00 31 1015.5
20260504170436 21 219 8.0 25.7 0.00 0.00 0.00 34 1015.3
20260504160355 20 227 11.3 17.7 0.00 0.00 0.00 33 1016.4
20260504150820 20 201 3.2 6.4 0.00 0.00 0.00 37 1016.7
20260504150316 20 207 6.4 12.9 0.00 0.00 0.00 36 1016.8
20260504141246 17 244 6.4 16.1 0.00 0.00 0.00 39 1017.3
20260504140742 18 271 12.9 17.7 0.00 0.00 0.00 37 1017.4
20260504140238 18 252 4.8 14.5 0.00 0.00 0.00 40 1017.1
20260504130707 16 214 4.8 11.3 0.00 0.00 0.00 49 1017.9
20260504130203 15 280 3.2 14.5 0.00 0.00 0.00 51 1017.7
20260504120127 12 241 4.8 16.1 0.00 0.00 0.00 61 1018.0
20260504110554 11 239 6.4 14.5 0.00 0.00 0.00 65 1018.2
20260504100516 9 245 0.0 4.8 0.00 0.00 0.00 64 1018.2
20260504081909 8 230 3.2 6.4 0.00 0.00 0.00 56 1018.0
20260504081406 9 207 1.6 6.4 0.00 0.00 0.00 55 1017.9
20260504080902 9 225 3.2 4.8 0.00 0.00 0.00 55 1018.1
20260504080359 9 244 3.2 9.7 0.00 0.00 0.00 55 1017.9
20260504070326 8 238 1.6 4.8 0.00 0.00 0.00 55 1017.5
20260504060247 9 227 1.6 1.6 0.00 0.00 0.00 53 1017.6
20260504050715 9 244 3.2 3.2 0.00 0.00 0.00 51 1017.4
20260504050212 9 239 4.8 4.8 0.00 0.00 0.00 51 1017.2
20260504045709 9 254 3.2 4.8 0.00 0.00 0.00 51 1017.4
20260504045209 9 249 3.2 4.8 0.00 0.00 0.00 51 1017.3
20260504044708 9 243 0.0 1.6 0.00 0.00 0.00 51 1017.1
20260504044204 9 243 1.6 6.4 0.00 0.00 0.00 51 1017.2
20260504043701 9 236 1.6 3.2 0.00 0.00 0.00 51 1017.0
20260504043158 9 231 3.2 3.2 0.00 0.00 0.00 51 1017.2
20260504042655 9 240 3.2 6.4 0.00 0.00 0.00 51 1017.1
20260504042152 8 232 0.0 3.2 0.00 0.00 0.00 52 1017.0
20260504041648 9 252 0.0 1.6 0.00 0.00 0.00 52 1017.0
20260504041144 8 215 1.6 3.2 0.00 0.00 0.00 52 1017.1
20260504040641 8 244 1.6 1.6 0.00 0.00 0.00 53 1017.2
20260504040138 8 223 0.0 0.0 0.00 0.00 0.00 52 1016.6
20260504035635 9 243 0.0 0.0 0.00 0.00 0.00 52 1016.6
20260504035131 9 234 1.6 1.6 0.00 0.00 0.00 50 1016.8
20260504034629 9 233 1.6 3.2 0.00 0.00 0.00 50 1016.6
20260504034126 9 240 0.0 0.0 0.00 0.00 0.00 50 1016.6
20260504033624 10 242 0.0 1.6 0.00 0.00 0.00 49 1016.7
20260504033121 10 243 4.8 6.4 0.00 0.00 0.00 49 1016.8
20260504032618 9 242 1.6 3.2 0.00 0.00 0.00 49 1016.7
20260504032115 10 214 1.6 3.2 0.00 0.00 0.00 49 1016.6
20260504031612 10 207 1.6 3.2 0.00 0.00 0.00 49 1016.7
20260504031108 9 253 1.6 3.2 0.00 0.00 0.00 49 1016.7
20260504030605 10 235 0.0 3.2 0.00 0.00 0.00 49 1016.6
20260504030101 10 230 0.0 4.8 0.00 0.00 0.00 49 1016.6
20260504025558 10 243 1.6 1.6 0.00 0.00 0.00 49 1016.5
20260504025055 10 249 1.6 3.2 0.00 0.00 0.00 49 1016.6
20260504024552 10 252 0.0 3.2 0.00 0.00 0.00 48 1016.6
20260504024049 10 260 3.2 3.2 0.00 0.00 0.00 48 1016.6
20260504023546 10 251 0.0 1.6 0.00 0.00 0.00 48 1016.5
20260504023041 9 241 0.0 0.0 0.00 0.00 0.00 49 1016.5
20260504022537 9 240 0.0 0.0 0.00 0.00 0.00 49 1016.6
20260504022034 10 234 0.0 0.0 0.00 0.00 0.00 49 1016.6
20260504021532 9 250 1.6 1.6 0.00 0.00 0.00 49 1016.4
20260504021028 9 245 0.0 1.6 0.00 0.00 0.00 50 1016.6
20260504020525 9 240 0.0 0.0 0.00 0.00 0.00 49 1016.6
20260504020022 10 242 0.0 1.6 0.00 0.00 0.00 50 1016.6
20260504015518 10 237 0.0 1.6 0.00 0.00 0.00 50 1016.6
20260504015014 10 256 0.0 0.0 0.00 0.00 0.00 51 1016.3
20260504014510 10 238 0.0 0.0 0.00 0.00 0.00 49 1016.6
20260504014008 10 244 0.0 0.0 0.00 0.00 0.00 49 1016.5
20260504013506 10 239 0.0 1.6 0.00 0.00 0.00 48 1016.2
20260504013001 10 246 0.0 0.0 0.00 0.00 0.00 50 1016.4
20260504012500 10 247 0.0 0.0 0.00 0.00 0.00 49 1016.3
20260504011957 10 246 0.0 0.0 0.00 0.00 0.00 49 1016.3
20260504011453 10 246 0.0 1.6 0.00 0.00 0.00 48 1016.3
20260504010949 10 243 0.0 0.0 0.00 0.00 0.00 48 1016.1
20260504010446 10 243 0.0 1.6 0.00 0.00 0.00 48 1016.1
20260504005942 10 243 0.0 0.0 0.00 0.00 0.00 47 1015.9
20260504005439 10 238 0.0 0.0 0.00 0.00 0.00 46 1015.8
20260504004936 10 238 0.0 0.0 0.00 0.00 0.00 45 1015.8
20260504004434 10 238 0.0 0.0 0.00 0.00 0.00 46 1015.7
20260504003930 11 238 0.0 0.0 0.00 0.00 0.00 45 1015.6
20260504003427 11 238 0.0 0.0 0.00 0.00 0.00 45 1015.8
20260504002924 11 238 0.0 0.0 0.00 0.00 0.00 42 1015.5
20260504002420 11 238 0.0 0.0 0.00 0.00 0.00 41 1015.4
20260504001918 12 238 0.0 0.0 0.00 0.00 0.00 40 1015.3
20260504001416 12 238 0.0 0.0 0.00 0.00 0.00 39 1015.3
20260504000912 12 240 0.0 0.0 0.00 0.00 0.00 37 1015.4
20260504000409 12 241 0.0 0.0 0.00 0.00 0.00 36 1015.0
20260503235906 12 241 0.0 1.6 0.00 0.00 0.00 35 1015.0
20260503235404 13 243 0.0 0.0 0.00 0.00 0.00 35 1015.1
20260503234901 13 243 0.0 0.0 0.00 0.00 0.00 34 1015.0
20260503234359 13 243 1.6 1.6 0.00 0.00 0.00 33 1015.0
20260503233856 13 244 0.0 1.6 0.00 0.00 0.00 33 1015.1
20260503233353 13 241 3.2 3.2 0.00 0.00 0.00 33 1014.8
20260503232849 14 236 3.2 3.2 0.00 0.00 0.00 32 1015.1
20260503232347 14 241 1.6 3.2 0.00 0.00 0.00 32 1015.1
20260503231844 14 252 1.6 11.3 0.00 0.00 0.00 31 1014.9
20260503231341 14 232 1.6 11.3 0.00 0.00 0.00 31 1015.0
20260503230837 14 230 3.2 4.8 0.00 0.00 0.00 31 1014.8
20260503230334 14 268 0.0 6.4 0.00 0.00 0.00 32 1014.7
20260503225832 15 282 1.6 4.8 0.00 0.00 0.00 30 1014.7
20260503225328 15 240 1.6 3.2 0.00 0.00 0.00 30 1014.8
20260503224824 15 257 0.0 11.3 0.00 0.00 0.00 30 1014.6
20260503224321 15 205 3.2 9.7 0.00 0.00 0.00 30 1014.5
20260503223819 15 190 4.8 6.4 0.00 0.00 0.00 30 1014.5
20260503223317 15 328 3.2 9.7 0.00 0.00 0.00 30 1014.7
20260503222812 15 307 3.2 11.3 0.00 0.00 0.00 29 1014.6
20260503222311 15 216 6.4 11.3 0.00 0.00 0.00 29 1014.5
20260503221809 15 286 3.2 3.2 0.00 0.00 0.00 30 1014.6
20260503221307 15 270 3.2 4.8 0.00 0.00 0.00 29 1014.5
20260503220802 15 243 4.8 6.4 0.00 0.00 0.00 30 1014.6
20260503220259 15 281 9.7 16.1 0.00 0.00 0.00 28 1014.6
20260503215756 15 263 3.2 11.3 0.00 0.00 0.00 29 1014.6
20260503215253 15 303 4.8 6.4 0.00 0.00 0.00 29 1014.4